Location: Lecco
(45.8566°N, 9.3977°E)
Time: 06:15:47
(UTC+02:00)

OTV 5 (USA 277) - Pass Details

Date: 18 June 2019
Orbit: 299 x 335 km, 54.5° (Epoch: 13 July)

Event Time Altitude Azimuth Distance (km) Brightness Sun altitude
Exits shadow 00:47:57 37° 40° (NE) 544 ? -20.3°
Drops below altitude 10° 00:49:48 10° 52° (NE) 1,266 ? -20.3°
Enters shadow 01:53:02 -53° 249° (WSW) 10,607 ? -20.4°
